Weather History for KLYH - April, 2014

Change the Weather History Date:

Thursday, April 3, 2014

  Actual Average Record
Temperature  
Mean Temperature 63 °F 52 °F  
Max Temperature 76 °F 64 °F 89 °F (1963)
Min Temperature 50 °F 39 °F 24 °F (1965)
Degree Days  
Heating Degree Days 2 13  
Month to date heating degree days 7 41  
Since 1 July heating degree days 4171 4060  
Cooling Degree Days 0 0  
Month to date cooling degree days 2 0  
Year to date cooling degree days 2 2  
Growing Degree Days 14 (Base 50)    
Moisture  
Dew Point 45 °F    
Average Humidity 53    
Maximum Humidity 71    
Minimum Humidity 35    
Precipitation  
Precipitation T in 0.12 in 1.00 in (1901)
Month to date precipitation T 0.35  
Year to date precipitation 10.01 10.00  
Snow  
Snow 0.00 in - - ()
Month to date snowfall 0.0  
Since 1 July snowfall 21.4  
Snow Depth 0.00 in    
Sea Level Pressure  
Sea Level Pressure 30.01 in    
Wind  
Wind Speed 5 mph (ESE)    
Max Wind Speed 17 mph    
Max Gust Speed 18 mph    
Visibility 10 miles    
Events Rain    
T = Trace of Precipitation, MM = Missing Value Source: NWS Daily Summary

Daily Weather History Graph

Daily Weather History Graph

Search for Another Location

Airport or City:

Trip Planner

Search our weather history database for the weather conditions in past years. The results will help you decide how hot, cold, wet, or windy it might be!

Date:

Astronomy

Apr. 03, 2014 Rise Set
Actual Time 6:59 AM EDT 7:41 PM EDT
Civil Twilight 6:33 AM EDT 8:07 PM EDT
Nautical Twilight 6:02 AM EDT 8:38 PM EDT
Astronomical Twilight 5:30 AM EDT 9:10 PM EDT
Moon 9:31 AM EDT (4/3) 11:54 PM EDT (4/3)
Length of Visible Light 13h 34m
Length of Day
12h 41m
Waxing Crescent, 17% of the Moon is Illuminated
Apr 3
Waxing Crescent
Apr 7
First Quarter
Apr 15
Full
Apr 22
Last Quarter
Apr 29
New

Hourly Weather History & Observations

Time (EDT) Temp. Dew Point Humidity Pressure Visibility Wind Dir Wind Speed Gust Speed Precip Events Conditions
12:54 AM 64.0 °F 37.9 °F 38% 30.08 in 10.0 mi NNE 10.4 mph - N/A   Unknown
1:54 AM 63.0 °F 39.0 °F 41% 30.06 in 10.0 mi NE 9.2 mph - N/A   Partly Cloudy
2:54 AM 60.1 °F 41.0 °F 49% 30.04 in 10.0 mi NNE 9.2 mph - N/A   Clear
3:54 AM 57.9 °F 43.0 °F 58% 30.04 in 10.0 mi North 6.9 mph - N/A   Clear
4:54 AM 57.0 °F 44.1 °F 62% 30.04 in 10.0 mi NNE 6.9 mph - N/A   Clear
5:54 AM 54.0 °F 43.0 °F 66% 30.05 in 10.0 mi Calm Calm - N/A   Clear
6:54 AM 53.1 °F 43.0 °F 69% 30.06 in 10.0 mi Calm Calm - N/A   Partly Cloudy
7:54 AM 54.0 °F 45.0 °F 72% 30.09 in 10.0 mi Calm Calm - N/A   Clear
8:54 AM 61.0 °F 45.0 °F 56% 30.09 in 10.0 mi NE 5.8 mph - N/A   Clear
9:54 AM 64.0 °F 45.0 °F 50% 30.09 in 10.0 mi North 3.5 mph - N/A   Mostly Cloudy
10:54 AM 64.9 °F 43.0 °F 45% 30.09 in 10.0 mi SSE 4.6 mph - N/A   Partly Cloudy
11:54 AM 66.0 °F 45.0 °F 47% 30.08 in 10.0 mi East 3.5 mph - 0.00 in Rain Light Rain
12:54 PM 69.1 °F 43.0 °F 39% 30.03 in 10.0 mi ESE 9.2 mph - 0.00 in   Mostly Cloudy
1:54 PM 71.1 °F 44.1 °F 38% 30.00 in 10.0 mi SE 6.9 mph - N/A   Clear
2:54 PM 73.9 °F 45.0 °F 35% 29.97 in 10.0 mi Variable 3.5 mph - N/A   Clear
3:54 PM 75.9 °F 46.0 °F 35% 29.94 in 10.0 mi SSE 10.4 mph 18.4 mph N/A   Clear
4:54 PM 75.0 °F 48.0 °F 38% 29.94 in 10.0 mi South 6.9 mph - N/A   Clear
5:54 PM 73.9 °F 48.9 °F 41% 29.93 in 10.0 mi SSW 6.9 mph - N/A   Clear
6:54 PM 73.0 °F 50.0 °F 44% 29.93 in 10.0 mi South 6.9 mph - N/A   Clear
7:54 PM 66.0 °F 50.0 °F 56% 29.92 in 10.0 mi South 5.8 mph - N/A   Clear
8:54 PM 66.9 °F 50.0 °F 54% 29.91 in 10.0 mi South 3.5 mph - N/A   Clear
9:54 PM 64.0 °F 51.1 °F 63% 29.93 in 10.0 mi Calm Calm - N/A   Clear
11:54 PM 66.9 °F 51.1 °F 57% 29.97 in 10.0 mi Variable 4.6 mph - N/A   Overcast